Total_Precipitation_Accumulation
0.00 0.01 0.03 0.02 0.01 0.02 0.04 0.04 0.04 0.05 0.07 0.08 0.07 0.06 0.09 0.10 0.07 0.03 0.01 0.01 0.02 0.04 0.07 0.07 0.09 0.09 0.09 0.09 0.08 0.06 0.06 0.05 0.04 0.05 0.07 0.08 0.09 0.13 0.21 0.30 0.38 0.28 0.19
0.00 0.01 0.03 0.02 0.01 0.02 0.04 0.05 0.06 0.05 0.04 0.05 0.06 0.10 0.14 0.12 0.10 0.05 0.02 0.02 0.02 0.02 0.04 0.06 0.06 0.07 0.08 0.08 0.06 0.04 0.04 0.03 0.03 0.05 0.06 0.06 0.09 0.16 0.22 0.25 0.40 0.27 0.16
0.00 0.00 0.02 0.02 0.01 0.01 0.02 0.04 0.08 0.08 0.06 0.04 0.07 0.10 0.12 0.11 0.11 0.08 0.07 0.03 0.02 0.02 0.02 0.03 0.04 0.06 0.05 0.04 0.03 0.03 0.02 0.02 0.03 0.07 0.23 0.22 0.07 0.13 0.22 0.25 0.24 0.14 0.10
0.00 0.00 0.01 0.01 0.01 0.01 0.01 0.03 0.07 0.08 0.05 0.06 0.13 0.13 0.09 0.11 0.11 0.10 0.09 0.05 0.05 0.03 0.02 0.03 0.03 0.04 0.03 0.01 0.01 0.01 0.01 0.02 0.04 0.16 0.47 0.32 0.14 0.11 0.20 0.21 0.16 0.11 0.11
0.00 0.00 0.00 0.01 0.01 0.01 0.01 0.03 0.06 0.07 0.06 0.07 0.11 0.11 0.08 0.11 0.13 0.11 0.09 0.09 0.10 0.06 0.03 0.04 0.04 0.04 0.03 0.02 0.02 0.02 0.02 0.03 0.07 0.21 0.30 0.28 0.35 0.20 0.19 0.24 0.23 0.18 0.16
0.00 0.00 0.00 0.01 0.01 0.01 0.01 0.02 0.04 0.06 0.06 0.05 0.05 0.08 0.07 0.12 0.18 0.16 0.12 0.13 0.16 0.14 0.07 0.04 0.04 0.04 0.03 0.02 0.02 0.02 0.03 0.05 0.10 0.15 0.17 0.22 0.40 0.32 0.26 0.40 0.49 0.44 0.35
0.00 0.00 0.01 0.01 0.02 0.01 0.01 0.02 0.03 0.05 0.05 0.03 0.03 0.03 0.04 0.08 0.12 0.13 0.12 0.13 0.13 0.12 0.10 0.08 0.06 0.05 0.06 0.05 0.04 0.04 0.05 0.09 0.15 0.12 0.12 0.21 0.37 0.26 0.30 0.57 0.80 0.71 0.56
0.00 0.00 0.01 0.02 0.02 0.01 0.01 0.02 0.03 0.03 0.03 0.03 0.02 0.02 0.02 0.04 0.07 0.08 0.10 0.10 0.09 0.08 0.08 0.09 0.10 0.09 0.08 0.07 0.06 0.06 0.07 0.08 0.11 0.12 0.14 0.22 0.21 0.20 0.40 0.67 0.87 0.81 0.69
0.00 0.00 0.01 0.02 0.02 0.02 0.02 0.02 0.02 0.02 0.02 0.02 0.02 0.02 0.02 0.03 0.04 0.06 0.09 0.10 0.09 0.10 0.12 0.13 0.12 0.10 0.10 0.09 0.07 0.07 0.08 0.09 0.13 0.16 0.20 0.37 0.34 0.37 0.61 0.77 0.84 0.85 0.79
0.01 0.01 0.01 0.02 0.02 0.03 0.02 0.02 0.03 0.03 0.03 0.03 0.03 0.04 0.04 0.04 0.05 0.08 0.10 0.10 0.11 0.12 0.14 0.17 0.20 0.19 0.18 0.15 0.15 0.16 0.15 0.12 0.09 0.10 0.27 0.34 0.38 0.58 0.82 0.91 0.98 0.98 0.98
0.02 0.02 0.02 0.02 0.03 0.04 0.04 0.04 0.05 0.06 0.06 0.06 0.07 0.07 0.07 0.07 0.12 0.19 0.16 0.19 0.22 0.25 0.27 0.30 0.34 0.36 0.32 0.25 0.29 0.39 0.31 0.22 0.16 0.19 0.28 0.34 0.39 0.67 0.96 1.06 1.13 1.18 1.19
0.03 0.03 0.04 0.05 0.05 0.06 0.08 0.12 0.12 0.12 0.15 0.15 0.22 0.24 0.21 0.26 0.26 0.20 0.28 0.40 0.47 0.61 0.65 0.70 0.76 0.64 0.53 0.47 0.87 1.07 0.40 0.36 0.37 0.33 0.48 0.47 0.56 0.89 1.17 1.14 1.11 1.20 1.19
0.07 0.06 0.06 0.09 0.11 0.13 0.17 0.17 0.18 0.21 0.29 0.29 0.30 0.35 0.44 0.43 0.33 0.28 0.38 0.55 0.66 0.82 0.96 1.28 1.43 1.08 1.05 1.11 1.23 1.13 0.55 0.46 0.45 0.46 0.65 0.73 0.78 1.11 1.46 1.34 1.16 1.16 1.20
0.16 0.16 0.14 0.16 0.19 0.24 0.26 0.25 0.25 0.26 0.30 0.34 0.43 0.49 0.60 0.59 0.54 0.56 0.67 0.75 0.89 1.03 1.29 1.48 1.74 1.57 1.40 1.26 1.23 1.08 0.90 0.81 0.66 0.82 0.98 0.80 0.81 1.09 1.44 1.43 1.27 1.17 1.18
0.33 0.32 0.30 0.29 0.32 0.38 0.40 0.38 0.37 0.38 0.40 0.50 0.65 0.73 0.80 0.89 0.99 1.07 1.00 1.09 1.10 1.21 1.42 1.70 1.74 1.91 1.97 1.94 1.65 1.40 1.26 1.15 1.01 1.20 1.36 1.19 0.94 0.98 1.23 1.43 1.41 1.30 1.19
0.52 0.55 0.53 0.50 0.52 0.59 0.62 0.64 0.65 0.71 0.81 0.89 1.04 1.11 1.26 1.43 1.55 1.67 1.63 1.62 1.46 1.48 1.65 1.91 2.06 2.42 2.31 2.17 1.73 1.59 1.44 1.36 1.14 1.18 1.37 1.44 1.07 0.90 0.99 1.23 1.42 1.39 1.30
0.62 0.68 0.84 0.89 0.93 1.11 1.28 1.26 1.20 1.31 1.37 1.43 1.52 1.57 1.65 1.75 1.91 2.05 1.95 1.86 1.87 1.91 2.02 2.15 2.24 2.32 2.09 1.98 1.78 1.72 1.57 1.38 1.16 1.16 1.24 1.32 1.20 0.97 0.92 1.02 1.23 1.31 1.31
0.80 0.95 1.11 1.25 1.51 1.78 2.01 2.04 1.94 1.93 1.92 1.87 1.83 1.85 1.92 2.00 2.16 2.39 2.19 2.05 2.36 2.27 2.36 2.58 2.54 2.43 2.20 2.10 1.94 1.77 1.65 1.41 1.09 1.07 1.09 1.19 1.29 1.06 1.00 1.01 1.03 1.04 1.20
1.14 1.39 1.50 1.70 2.01 2.31 2.47 2.54 2.61 2.54 2.36 2.12 2.03 2.03 2.00 2.04 2.14 2.38 2.20 2.23 2.39 2.59 2.60 2.42 2.76 2.64 2.42 2.31 1.97 1.68 1.43 1.20 1.00 0.94 0.92 0.90 1.04 0.94 0.85 0.91 0.93 0.96 1.20
1.73 2.01 2.25 2.50 2.64 2.57 2.53 2.59 2.54 2.40 2.29 2.20 2.16 2.10 2.03 2.07 2.12 2.41 2.23 2.18 2.34 2.53 2.46 2.44 2.62 2.63 2.38 2.35 1.93 1.48 1.25 0.98 0.90 0.90 0.82 0.81 0.81 0.72 0.67 0.80 1.08 0.90 0.93
2.25 2.50 2.74 2.98 3.16 3.06 3.12 3.16 3.09 2.80 2.67 2.44 2.19 1.95 1.87 1.85 2.01 2.33 2.12 2.27 2.28 2.28 2.29 2.35 2.57 2.55 2.31 2.41 2.15 1.62 1.18 0.88 0.76 0.76 0.82 0.80 0.70 0.74 0.89 1.03 1.12 1.07 0.98
2.11 2.54 2.92 2.85 2.78 2.69 2.87 3.13 3.32 3.29 2.93 2.43 2.20 2.07 1.85 1.78 1.90 2.07 2.11 2.03 2.09 2.14 2.17 2.23 2.41 2.24 2.01 2.24 2.24 2.05 1.41 1.01 0.75 0.64 0.85 0.87 0.81 0.90 0.95 0.98 1.11 1.23 1.20
1.72 2.05 2.20 2.04 2.01 1.94 2.02 2.27 2.45 2.73 2.61 2.32 2.07 1.93 1.82 1.78 1.76 1.82 1.87 1.88 1.91 1.90 1.92 2.08 2.09 2.02 1.87 1.91 2.11 2.23 1.78 1.29 0.99 0.69 0.65 0.72 0.86 0.92 0.91 0.98 0.96 1.04 1.09
1.13 1.12 1.19 1.28 1.34 1.41 1.53 1.78 2.05 2.30 2.29 2.21 2.14 1.89 1.68 1.54 1.50 1.51 1.52 1.56 1.63 1.68 1.78 1.70 1.74 1.90 1.91 1.78 1.89 1.94 1.84 1.74 1.54 1.01 0.73 0.72 0.90 0.93 0.91 0.87 0.92 1.04 1.04
0.93 0.95 0.96 1.06 1.20 1.31 1.42 1.58 1.78 2.12 2.11 1.94 1.80 1.65 1.56 1.47 1.40 1.34 1.37 1.38 1.37 1.41 1.50 1.55 1.73 1.77 1.83 1.78 1.75 1.76 1.84 1.81 1.65 1.38 0.97 0.88 0.90 0.83 0.87 0.89 0.95 1.09 1.23
0.78 0.88 0.93 0.96 1.05 1.12 1.19 1.29 1.35 1.51 1.57 1.47 1.41 1.36 1.29 1.21 1.19 1.22 1.22 1.23 1.24 1.29 1.40 1.44 1.49 1.51 1.56 1.60 1.58 1.59 1.67 1.61 1.53 1.56 1.26 1.13 1.08 0.94 0.97 1.01 1.01 1.09 1.12